EW8053 Weather Reports


time (UTC)temp
C
wind
direction
speed
KPH
gust
KPH
rain 1hr
cm
rain 24hr
cm
rain mn
cm
humidity
%
barometer
mb
20260508220104 16 297 0.0 3.2 0.00 0.00 0.00 53 1009.9
20260508214557 17 191 1.6 8.0 0.00 0.00 0.00 51 1009.8
20260508213116 17 280 1.6 8.0 0.00 0.00 0.00 49 1009.8
20260508211558 17 238 1.6 9.7 0.00 0.00 0.00 48 1010.0
20260508210059 17 182 3.2 8.0 0.00 0.00 0.00 49 1010.1
20260508204556 17 264 3.2 8.0 0.00 0.00 0.00 48 1010.1
20260508203115 18 226 3.2 16.1 0.00 0.00 0.00 47 1010.3
20260508201557 18 276 3.2 16.1 0.00 0.00 0.00 46 1010.4
20260508200100 18 259 4.8 22.5 0.00 0.00 0.00 44 1010.6
20260508194601 18 312 6.4 14.5 0.00 0.00 0.00 45 1010.7
20260508193135 18 287 4.8 12.9 0.00 0.00 0.00 46 1010.9
20260508191601 18 243 6.4 14.5 0.00 0.00 0.00 45 1011.2
20260508190107 18 179 4.8 17.7 0.00 0.00 0.00 48 1011.3
20260508184635 18 141 4.8 16.1 0.00 0.00 0.00 47 1011.4
20260508183114 18 160 6.4 20.9 0.00 0.00 0.00 46 1011.4
20260508181601 18 188 6.4 17.7 0.00 0.00 0.00 46 1011.7
20260508180105 19 279 3.2 14.5 0.00 0.00 0.00 46 1011.7
20260508174617 19 186 6.4 19.3 0.00 0.00 0.00 45 1012.1
20260508173118 18 241 3.2 14.5 0.00 0.00 0.00 49 1012.3
20260508171628 18 280 6.4 14.5 0.00 0.00 0.00 49 1012.7
20260508164604 16 180 4.8 12.9 0.00 0.00 0.00 52 1013.3
20260508163101 17 280 3.2 9.7 0.00 0.00 0.00 51 1013.4
20260508161603 17 250 4.8 16.1 0.00 0.00 0.00 48 1013.4
20260508154600 16 165 3.2 16.1 0.00 0.00 0.00 51 1013.7
20260508153101 16 244 4.8 11.3 0.00 0.00 0.00 51 1013.7
20260508151601 16 319 4.8 14.5 0.00 0.00 0.00 53 1013.7
20260508150059 16 249 3.2 12.9 0.00 0.00 0.00 55 1013.8
20260508144601 14 293 1.6 8.0 0.00 0.00 0.00 59 1014.1
20260508143103 13 309 3.2 9.7 0.00 0.00 0.00 57 1014.3
20260508141601 13 289 1.6 8.0 0.00 0.00 0.00 60 1014.3
20260508140111 12 237 3.2 11.3 0.00 0.00 0.00 60 1014.6
20260508134623 11 220 1.6 9.7 0.00 0.00 0.00 63 1014.6
20260508133113 11 264 3.2 6.4 0.00 0.00 0.00 64 1014.5
20260508131603 10 147 3.2 8.0 0.00 0.00 0.00 64 1014.5
20260508130103 10 255 3.2 9.7 0.00 0.00 0.00 66 1014.5
20260508124559 10 181 1.6 4.8 0.00 0.00 0.00 66 1014.4
20260508123105 10 149 0.0 6.4 0.00 0.00 0.00 66 1014.4
20260508121602 8 150 1.6 6.4 0.00 0.00 0.00 69 1014.3
20260508114607 7 0 0.0 0.0 0.00 0.00 0.00 74 1014.2
20260508113108 6 0 0.0 0.0 0.00 0.00 0.00 75 1013.9
20260508111602 6 0 0.0 0.0 0.00 0.00 0.00 73 1013.7
20260508110105 7 0 0.0 1.6 0.00 0.00 0.00 71 1013.7
20260508104600 7 212 0.0 4.8 0.00 0.00 0.00 71 1013.6
20260508103100 7 178 0.0 1.6 0.00 0.00 0.00 71 1013.4
20260508101600 7 0 0.0 3.2 0.00 0.00 0.00 70 1013.4
20260508100057 7 0 0.0 4.8 0.00 0.00 0.00 70 1013.4
20260508094615 7 160 0.0 3.2 0.00 0.00 0.00 70 1013.4
20260508093058 6 190 0.0 1.6 0.00 0.00 0.00 70 1013.5
20260508091617 7 0 0.0 4.8 0.00 0.00 0.00 68 1013.4
20260508090112 7 184 0.0 3.2 0.00 0.00 0.00 69 1013.5
20260508084558 7 155 0.0 1.6 0.00 0.00 0.00 69 1013.6
20260508083106 7 173 0.0 1.6 0.00 0.00 0.00 68 1013.6
20260508081606 7 0 0.0 1.6 0.00 0.00 0.00 68 1013.6
20260508080058 7 0 0.0 0.0 0.00 0.00 0.00 68 1013.6
20260508074600 7 0 0.0 0.0 0.00 0.00 0.00 66 1013.5
20260508073105 8 0 0.0 1.6 0.00 0.00 0.00 64 1013.7
20260508071559 8 165 0.0 4.8 0.00 0.00 0.00 63 1013.8
20260508070101 8 192 1.6 6.4 0.00 0.00 0.00 62 1013.8
20260508064600 8 207 0.0 4.8 0.00 0.00 0.00 63 1013.9
20260508063139 9 164 0.0 3.2 0.00 0.00 0.00 65 1014.1
20260508061559 10 0 0.0 6.4 0.00 0.00 0.00 61 1014.3
20260508060058 10 226 1.6 4.8 0.00 0.00 0.00 60 1013.7
20260508054600 9 0 1.6 8.0 0.00 0.00 0.00 61 1013.8
20260508053102 9 0 0.0 3.2 0.00 0.00 0.00 62 1013.8
20260508051618 9 0 0.0 1.6 0.00 0.00 0.00 63 1013.9
20260508050058 8 0 0.0 3.2 0.00 0.00 0.00 65 1013.9
20260508044558 8 0 0.0 1.6 0.00 0.00 0.00 68 1014.0
20260508043058 8 0 0.0 0.0 0.00 0.00 0.00 68 1014.0
20260508041558 8 0 0.0 0.0 0.00 0.00 0.00 67 1014.1
20260508034559 8 0 0.0 0.0 0.00 0.00 0.00 68 1014.2
20260508033058 8 0 0.0 0.0 0.00 0.00 0.00 66 1014.2
20260508031605 8 0 0.0 0.0 0.00 0.00 0.00 63 1014.2
20260508030108 8 0 0.0 0.0 0.00 0.00 0.00 64 1014.1
20260508024602 8 0 0.0 0.0 0.00 0.00 0.00 66 1014.1
20260508023100 7 0 0.0 0.0 0.00 0.00 0.00 70 1014.0
20260508021558 7 0 0.0 0.0 0.00 0.00 0.00 73 1014.1
20260508020106 7 0 0.0 0.0 0.00 0.00 0.00 72 1013.9
20260508014558 8 0 0.0 0.0 0.00 0.00 0.00 70 1014.1
20260508013100 8 0 0.0 0.0 0.00 0.00 0.00 68 1014.0
20260508011600 8 0 0.0 0.0 0.00 0.00 0.00 67 1014.1
20260508010145 8 0 0.0 0.0 0.00 0.00 0.00 64 1014.0
20260508010111 8 0 0.0 0.0 0.00 0.00 0.00 64 1014.0
20260508004557 9 0 0.0 0.0 0.00 0.00 0.00 59 1014.0
20260508003113 10 0 0.0 0.0 0.00 0.00 0.00 53 1013.9
20260508001602 11 0 0.0 0.0 0.00 0.00 0.00 50 1013.9
20260508000057 12 0 0.0 3.2 0.00 0.00 0.00 47 1013.7
20260507234600 12 214 0.0 6.4 0.00 0.00 0.00 44 1013.7
20260507233057 14 0 1.6 6.4 0.00 0.00 0.00 41 1013.5
20260507231559 13 221 0.0 4.8 0.00 0.00 0.00 42 1013.6
20260507230112 13 287 3.2 11.3 0.00 0.00 0.00 40 1013.7
20260507224558 15 145 3.2 9.7 0.00 0.00 0.00 38 1013.5
20260507223205 15 306 3.2 14.5 0.00 0.00 0.00 40 1013.7
20260507221559 15 0 3.2 9.7 0.00 0.00 0.00 41 1013.9